Location: *
(2.5500°S, 65.9667°W)
Time: 15:29:55
(UTC+00:00)

H-2A R/B - Pass Details

Date: 03 June 2022
Orbit: 734 x 836 km, 98.2° (Epoch: 03 July)

Event Time Altitude Azimuth Distance (km) Brightness Sun altitude
Rises 09:22:27 0° 39° (NE) 3,345 6.5 -14.7°
Reaches altitude 10° 09:25:23 10° 55° (NE) 2,403 5.9 -14.1°
Maximum altitude 09:29:16 21° 103° (ESE) 1,753 4.6 -13.2°
Drops below altitude 10° 09:33:06 10° 150° (SSE) 2,367 4.6 -12.3°
Sets 09:35:56 0° 166° (SSE) 3,280 5.2 -11.6°
